Home   Weather   Basse-Terre   Past weeks

Flag for Guadeloupe Past Weather in Basse-Terre, Guadeloupe — Yesterday and Last 2 Weeks

82 °F


Feels Like: 89 °F
Forecast: N/A
Wind: 8 mph from Southeast

Location: Le Raizet - Guadeloupe

Current Time: Oct 27, 2016 at 4:57:19 PM

Latest Report: Oct 27, 2016 at 4:30 PM

Visibility: N/A

Pressure: 29.80 "Hg

Humidity: 79%

Dew Point: 75 °F

Location of Basse-TerreLocation

Past Weather in Basse-Terre — Graph


Basse-Terre Temperature Yesterday

Maximum temperature yesterday: 86 °F (at 10:00 AM)
Minimum temperature yesterday: 77 °F (at 12:30 AM)
Average temperature yesterday: 80 °F

High & Low Weather Summary for the Past Weeks

High90 °F (Oct 13, 1:00 PM)100% (Oct 13, 4:30 AM)30.01 "Hg (Oct 13, 4:30 AM)
Low72 °F (Oct 15, 4:00 AM)52% (Oct 14, 1:00 PM)29.74 "Hg (Oct 25, 2:30 PM)
Average81 °F82%29.88 "Hg
* Reported Oct 12 3:00 PM — Oct 27 3:30 PM, Basse-Terre, Weather by CustomWeather, © 2016

Note: Actual official high and low records may vary slightly from our data, if they occured in-between our weather recording intervals... More about our weather records


Basse-Terre Weather History for the Previous 24 Hours

Scroll right to see more
Time TempWeatherWind HumidityBarometerVisibility
3:30 PM
Thu, Oct 27
82 °FBroken clouds.3 mph84%29.80 "HgN/A
3:00 PM82 °FBroken clouds.8 mph84%29.80 "HgN/A
2:30 PM82 °FMostly cloudy.8 mph79%29.80 "HgN/A
2:00 PM86 °FLight rain. Partly sunny.6 mph70%29.80 "HgN/A
1:30 PM88 °FPartly sunny.6 mph66%29.80 "HgN/A
1:00 PM86 °FPartly sunny.7 mph70%29.80 "HgN/A
12:30 PM88 °FPartly sunny.10 mph62%29.83 "HgN/A
12:00 PM86 °FBroken clouds.10 mph70%29.83 "HgN/A
11:30 AM86 °FPartly sunny.12 mph75%29.83 "HgN/A
11:00 AM86 °FMostly cloudy.10 mph70%29.86 "HgN/A
10:30 AM84 °FPartly sunny.8 mph74%29.86 "HgN/A
10:00 AM84 °FBroken clouds.6 mph79%29.89 "HgN/A
9:30 AM82 °FScattered clouds.5 mph84%29.89 "HgN/A
9:00 AM82 °FPartly sunny.3 mph84%29.89 "HgN/A
8:30 AM79 °FBroken clouds.2 mph94%29.86 "HgN/A
8:00 AM79 °FScattered clouds.5 mph94%29.86 "HgN/A
7:30 AM77 °FWarm.2 mph100%29.86 "Hg4 mi
7:00 AM77 °FPassing clouds.3 mph100%29.83 "HgN/A
6:30 AM77 °FPassing clouds.2 mph94%29.83 "Hg4 mi
6:00 AM77 °FPassing clouds.1 mph94%29.83 "Hg4 mi
5:30 AM77 °FPassing clouds.2 mph94%29.80 "Hg4 mi
5:00 AM77 °FFog.2 mph100%29.80 "Hg3 mi
4:30 AM77 °FLight rain. Fog.2 mph94%29.80 "Hg3 mi
4:00 AM77 °FHeavy rain. Passing clouds.3 mph100%29.77 "Hg1 mi
3:30 AM75 °FPassing clouds.1 mph100%29.77 "HgN/A
3:00 AM75 °FPassing clouds.No wind100%29.77 "HgN/A
2:30 AM77 °FPassing clouds.2 mph94%29.77 "HgN/A
2:00 AM77 °FPassing clouds.2 mph94%29.80 "HgN/A
1:30 AM77 °FPartly cloudy.No wind94%29.80 "HgN/A
1:00 AM77 °FPartly cloudy.1 mph94%29.80 "HgN/A
12:30 AM77 °FPartly cloudy.1 mph94%29.83 "HgN/A
12:00 AM77 °FPassing clouds.2 mph94%29.83 "HgN/A
11:30 PM
Wed, Oct 26
77 °FClear.No wind94%29.83 "Hg10 mi
11:00 PM77 °FPassing clouds.1 mph94%29.83 "HgN/A
10:30 PM77 °FPassing clouds.3 mph94%29.83 "HgN/A
10:00 PM77 °FPassing clouds.2 mph94%29.83 "HgN/A
9:30 PM77 °FPassing clouds.2 mph94%29.83 "HgN/A
9:00 PM79 °FPassing clouds.No wind89%29.83 "HgN/A
8:30 PM79 °FPassing clouds.3 mph89%29.83 "HgN/A
8:00 PM79 °FClear.3 mph89%29.83 "Hg10 mi
7:30 PM79 °FClear.1 mph89%29.83 "Hg10 mi
7:00 PM81 °FWarm.2 mph84%29.80 "HgN/A
6:30 PM81 °FWarm.5 mph84%29.80 "HgN/A
6:00 PM81 °FClear.6 mph79%29.80 "Hg10 mi
5:30 PM82 °FPassing clouds.5 mph74%29.80 "HgN/A
5:00 PM82 °FPassing clouds.6 mph70%29.77 "HgN/A
4:30 PM82 °FPassing clouds.7 mph79%29.77 "HgN/A
4:00 PM82 °FScattered clouds.7 mph84%29.77 "HgN/A
Weather by CustomWeather, © 2016

See weather overviewHow to use our weather pages